Fryeburg, ME

8:04 AM EST on February 19, 2017 (GMT -0500)
Eastern Slopes Regional

Weather History for KIZG - June, 2014

Change the Weather History Date:

Tuesday, June 10, 2014

  Actual Average Record
Temperature  
Mean Temperature 64 °F -  
Max Temperature 77 °F 72 °F 98 °F (2008)
Min Temperature 52 °F 46 °F 39 °F (2004)
Degree Days  
Heating Degree Days 1    
Growing Degree Days 14 (Base 50)    
Moisture  
Dew Point 57 °F    
Average Humidity 77    
Maximum Humidity 97    
Minimum Humidity 53    
Precipitation  
Precipitation 0.06 in - - ()
Sea Level Pressure  
Sea Level Pressure 30.01 in    
Wind  
Wind Speed 3 mph (NNE)    
Max Wind Speed 10 mph    
Max Gust Speed 17 mph    
Visibility 10 miles    
Events Rain    
Averages and records for this station are not official NWS values.
T = Trace of Precipitation, MM = Missing Value Source: NWS Daily Summary

Daily Weather History Graph

Daily Weather History Graph

Search for Another Location

Airport or City:

Trip Planner

Search our weather history database for the weather conditions in past years. The results will help you decide how hot, cold, wet, or windy it might be!

Date:

Astronomy

Jun. 10, 2014 Rise Set
Actual Time 5:00 AM EDT 8:25 PM EDT
Civil Twilight 4:24 AM EDT 9:02 PM EDT
Nautical Twilight 3:37 AM EDT 9:49 PM EDT
Astronomical Twilight 2:38 AM EDT 10:48 PM EDT
Moon 5:43 PM EDT (6/10) 3:10 AM EDT (6/10)
Length of Visible Light 16h 37m
Length of Day
15h 25m
Waxing Gibbous, 92% of the Moon is Illuminated
Jun 10
Waxing Gibbous
Jun 13
Full
Jun 19
Last Quarter
Jun 27
New
Jul 5
First Quarter

Hourly Weather History & Observations

Time (EDT) Temp. Dew Point Humidity Pressure Visibility Wind Dir Wind Speed Gust Speed Precip Events Conditions
12:54 AM 66.0 °F 61.0 °F 84% 29.94 in 10.0 mi Calm Calm - N/A   Scattered Clouds
1:54 AM 66.0 °F 62.1 °F 87% 29.93 in 10.0 mi Calm Calm - 0.00 in   Overcast
2:54 AM 64.9 °F 62.1 °F 90% 29.94 in 10.0 mi Calm Calm - 0.00 in Rain Light Rain
3:54 AM 64.0 °F 62.1 °F 93% 29.95 in 10.0 mi Calm Calm - 0.01 in   Overcast
4:54 AM 63.0 °F 62.1 °F 97% 29.95 in 10.0 mi NW 4.6 mph - 0.00 in Rain Light Rain
5:54 AM 64.0 °F 60.1 °F 87% 29.96 in 10.0 mi North 5.8 mph - 0.01 in   Overcast
6:54 AM 64.0 °F 59.0 °F 84% 29.97 in 10.0 mi North 4.6 mph - N/A   Overcast
7:51 AM 66.2 °F 57.2 °F 73% 29.98 in 10.0 mi Calm Calm - N/A   Overcast
7:54 AM 66.9 °F 57.0 °F 70% 29.98 in 10.0 mi NNE 3.5 mph - N/A   Overcast
8:54 AM 66.0 °F 57.9 °F 75% 29.99 in 10.0 mi NNW 3.5 mph - 0.00 in   Overcast
9:08 AM 64.0 °F 57.9 °F 80% 29.99 in 4.0 mi Variable 3.5 mph - 0.03 in Rain Rain
9:54 AM 66.9 °F 57.9 °F 73% 29.97 in 10.0 mi North 8.1 mph - 0.04 in   Mostly Cloudy
10:45 AM 71.1 °F 57.9 °F 63% 29.98 in 10.0 mi NE 8.1 mph - N/A   Scattered Clouds
11:54 AM 73.0 °F 59.0 °F 61% 29.98 in 10.0 mi Variable 5.8 mph - N/A   Overcast
1:54 PM 73.9 °F 55.9 °F 53% 29.99 in 10.0 mi ENE 9.2 mph - N/A   Overcast
3:54 PM 68.0 °F 54.0 °F 61% 30.04 in 10.0 mi NE 10.4 mph 17.3 mph N/A   Overcast
5:54 PM 66.0 °F 53.1 °F 63% 30.08 in 10.0 mi NE 8.1 mph - N/A   Overcast
6:54 PM 64.9 °F 53.1 °F 65% 30.10 in 10.0 mi NE 10.4 mph - N/A   Overcast
7:54 PM 62.1 °F 52.0 °F 70% 30.11 in 10.0 mi NE 4.6 mph - N/A   Overcast
8:54 PM 61.0 °F 52.0 °F 72% 30.12 in 10.0 mi Calm Calm - N/A   Scattered Clouds
9:54 PM 55.0 °F 52.0 °F 89% 30.14 in 10.0 mi Calm Calm - N/A   Clear
11:54 PM 52.0 °F 51.1 °F 97% 30.15 in 10.0 mi WNW 3.5 mph - N/A   Clear